GFSCGP_850_dewp_000.txt.gz
Dewpoint
-11 -6 -3 -1 -2 -3 -1 4 5 4 2 11 11 12 11 11 11 12 12 12 12 12 12 13 13 13 13 13 14 14 14 14 15 15 14 14 13 14 14 14 15 15 16 16
-8 -3 -3 -1 -1 -2 -3 1 5 4 2 5 12 12 11 11 12 12 13 13 12 13 12 13 13 13 13 13 14 14 14 13 13 13 12 12 11 9 12 13 13 14 13 13
-6 -5 -3 -1 -0 -0 -3 4 4 4 4 6 11 12 12 11 11 11 12 13 13 14 14 13 13 13 14 14 13 13 13 12 12 10 10 11 12 10 11 12 13 14 13 11
-7 -8 -3 -0 0 -2 -3 -4 2 5 5 9 7 14 11 10 10 9 11 12 13 13 14 14 14 13 14 14 13 14 13 7 5 8 7 9 12 12 8 12 13 12 11 6
-7 -6 -5 -3 -2 -5 -4 -7 -6 5 5 6 8 11 10 9 9 8 10 11 12 12 13 14 14 13 14 15 15 14 7 8 7 6 -4 7 12 6 9 10 11 11 8 10
-9 -9 -5 -5 -5 -6 -7 -7 -5 -1 2 6 7 7 9 11 8 7 8 11 11 12 13 13 13 13 14 15 15 15 6 6 8 -3 1 8 8 3 6 9 9 9 7 6
-6 -8 -8 -7 -7 -7 -7 -6 -3 -2 -0 -0 -2 8 6 9 7 6 7 10 11 11 12 13 13 14 15 15 15 14 11 7 7 3 13 -2 -2 -10 -6 6 8 5 1 7
-5 -4 -6 -8 -8 -7 -7 -6 -1 1 4 1 -0 0 -2 7 7 6 6 9 10 11 12 12 11 11 11 13 14 13 11 12 8 9 15 -0 -1 -5 -1 -1 0 4 9 6
-4 -4 -7 -8 -9 -9 -7 -3 -3 1 1 3 2 1 4 6 7 6 6 8 9 10 12 12 11 10 11 12 12 12 10 10 10 10 3 -0 2 -4 -2 3 8 10 10 5
-8 -6 -8 -8 -9 -8 -8 -6 -2 -0 2 2 2 3 5 9 9 7 6 6 7 9 11 12 11 10 10 10 10 11 11 9 10 9 1 -2 3 1 -1 2 6 4 -0 4
-11 -6 -7 -7 -7 -6 -2 -2 -2 -2 0 2 2 3 4 8 9 9 8 7 6 8 10 11 11 10 10 10 11 11 12 13 12 12 2 -0 6 5 3 5 1 1 3 4
-10 -7 -6 -7 -6 -8 -3 -3 -1 -0 -0 1 2 4 3 5 6 7 7 8 7 6 8 9 9 10 10 10 12 11 12 13 13 14 4 0 7 6 5 4 2 -0 -1 2
-9 -6 -4 -4 -5 -6 -4 -3 -0 -1 0 2 4 4 3 2 4 4 4 5 5 6 7 8 10 10 11 11 11 11 12 13 14 14 5 4 7 5 4 0 -0 -2 -2 -1
-6 -6 -6 -4 -2 -4 -4 -3 -1 -2 1 1 2 2 3 4 4 4 3 3 3 4 6 6 8 9 9 10 10 11 12 13 14 14 9 5 6 5 6 0 -1 -2 -1 1
-9 -5 -2 -4 -5 -3 -5 -5 -1 -2 -2 -1 -2 2 3 5 6 4 2 2 4 6 7 7 7 9 10 11 12 13 12 12 14 14 12 9 5 8 7 4 1 1 -0 2
-4 -4 -3 -5 -4 -6 -7 -4 -2 -2 -1 -1 -0 3 3 3 5 5 4 3 3 3 4 6 7 8 9 10 11 11 11 12 14 14 13 10 7 9 7 3 0 2 -0 4
-2 -1 -0 -2 -2 -1 -0 -1 -3 -2 2 -3 -0 -1 2 5 5 3 3 2 2 2 2 5 11 10 11 12 11 12 12 13 14 14 13 11 10 7 8 5 -1 -0 1 4
1 -1 -0 0 -2 1 -2 -1 2 5 5 5 1 3 3 4 4 3 2 1 1 1 1 1 1 5 10 11 13 14 14 14 15 14 13 10 9 7 9 5 -3 -1 3 5
6 7 9 2 -0 -1 1 4 4 4 5 6 6 5 3 3 2 3 0 -1 -1 -2 -0 -1 1 3 3 10 13 14 15 15 15 14 11 10 8 8 9 3 -2 1 6 9
4 7 9 10 4 3 3 7 5 4 8 5 6 6 4 4 7 6 1 -1 -0 2 2 1 1 -2 -2 6 12 14 15 15 15 13 11 10 7 8 7 -2 0 5 9 11
8 9 9 10 9 7 6 8 4 7 7 7 4 4 4 6 6 3 4 4 4 3 2 2 1 1 -2 6 11 14 15 15 14 13 11 9 9 8 3 3 5 9 11 11
12 11 11 10 8 8 7 7 10 8 6 5 5 4 4 4 3 3 3 1 2 4 6 5 4 1 3 8 12 14 14 13 12 11 11 12 12 12 13 8 10 11 11 10
11 12 13 13 12 10 7 8 7 6 6 5 5 4 3 4 4 4 2 1 -1 -2 -4 5 7 5 11 14 14 14 13 12 12 13 13 12 10 9 11 12 11 11 10 10
9 10 12 11 9 11 7 4 4 5 4 5 5 5 5 4 4 2 -1 2 4 4 -2 -2 8 8 10 14 14 14 12 13 13 12 11 8 7 6 8 9 10 10 10 10
10 9 12 12 10 7 5 3 2 2 3 3 3 2 2 2 5 8 8 8 6 7 8 10 11 12 14 15 14 13 12 12 11 7 3 4 5 3 7 10 11 10 8 8
8 10 12 12 10 8 7 2 -0 -0 -1 -1 -1 -0 0 2 10 7 6 11 11 10 11 14 14 14 14 13 12 10 5 5 4 4 5 3 3 7 9 9 9 8 7 7

GFSCGP_850_dewp_003.txt.gz
Dewpoint
-13 -8 -4 -5 -2 -3 -0 2 8 8 6 10 11 12 13 13 13 13 13 14 13 14 13 13 13 13 13 13 13 14 15 15 15 15 16 16 16 15 15 15 15 16 15 15
-10 -6 -8 -5 -2 -2 -4 -4 2 3 7 10 11 12 11 11 12 12 12 13 13 13 14 13 13 13 13 13 13 14 14 15 13 13 15 15 15 14 13 15 14 14 14 13
-10 -9 -6 -2 -1 0 -2 -1 -0 4 7 10 12 13 12 11 11 11 11 12 12 12 13 13 13 13 13 13 13 14 14 13 10 11 13 14 13 10 10 13 12 10 14 13
-9 -10 -5 -1 -1 -1 1 -3 -2 4 7 11 10 15 12 12 12 12 12 13 12 12 12 12 13 13 13 13 13 13 13 11 9 12 11 7 7 10 8 8 10 12 14 11
-9 -8 -6 -2 -0 -2 -1 -4 -4 2 5 9 10 11 12 12 13 12 12 12 13 13 12 13 13 14 14 13 14 11 11 11 8 11 9 6 7 10 10 6 10 13 11 8
-11 -10 -8 -6 -6 -4 -4 -6 -5 1 4 9 11 9 9 13 12 11 10 11 13 13 13 14 13 14 14 13 13 12 11 8 7 5 5 2 6 5 4 7 10 11 9 8
-7 -9 -8 -6 -5 -5 -6 -5 -2 3 8 9 5 8 7 9 9 10 10 10 12 13 14 14 14 14 14 12 12 13 8 4 5 4 1 -2 0 0 -2 3 7 8 7 3
-5 -5 -6 -8 -5 -4 -6 -5 -1 -1 4 4 3 10 8 5 7 8 8 9 11 12 13 14 13 13 14 11 11 10 9 4 6 7 2 3 1 -3 -10 -6 5 5 2 0
-5 -5 -8 -7 -9 -6 -5 -4 -6 -3 1 2 2 0 -1 6 6 7 7 7 10 11 12 13 13 13 14 12 9 8 8 7 6 4 4 5 6 -1 -7 -5 -6 -4 3 7
-8 -5 -7 -8 -8 -8 -7 -6 -2 -1 0 2 2 1 1 4 8 8 7 6 8 11 11 13 13 12 12 12 7 8 10 9 7 4 5 4 10 2 -3 -1 -1 1 6 7
-8 -8 -7 -8 -6 -6 -2 -4 -3 -2 -0 1 2 2 2 2 8 8 7 6 7 10 11 11 12 11 11 12 11 6 11 12 11 8 9 8 11 2 1 -3 -3 -2 -1 -1
-9 -7 -6 -7 -7 -8 -7 -4 -4 -3 -0 1 1 1 -1 3 8 7 7 6 6 7 9 10 11 11 12 12 11 9 9 11 12 12 10 11 12 2 5 1 -1 -2 -1 1
-8 -7 -5 -5 -6 -6 -5 -2 -3 -2 0 4 3 2 2 5 7 8 8 7 6 6 8 9 10 11 11 12 12 10 10 10 12 13 12 13 13 4 6 3 1 1 -1 -1
-7 -7 -7 -5 -6 -4 -4 -1 -1 -2 1 1 1 -0 3 4 6 6 8 8 6 6 6 7 10 10 9 10 11 12 11 11 12 13 13 13 14 6 5 5 2 -0 -1 -2
-9 -6 -6 -9 -8 -4 -4 -4 -1 -2 -2 -1 -1 1 3 4 4 5 6 6 7 7 7 7 7 7 7 9 11 12 12 12 12 13 14 13 14 9 3 6 1 -1 -1 -2
-8 -6 -3 -5 -7 -7 -6 -5 -2 -2 -2 -2 -2 0 -0 2 4 5 4 4 4 4 3 5 5 5 6 6 7 9 10 11 12 13 13 14 14 9 5 7 3 1 -0 -1
-4 -4 -3 -5 -4 -3 -1 -3 -2 0 1 -1 0 -1 1 4 5 5 4 3 2 3 4 4 4 4 4 5 7 9 9 12 12 13 15 14 11 11 6 6 7 1 -2 -1
1 -4 -2 -5 -1 1 -3 2 1 5 6 6 5 -1 2 2 1 2 3 3 4 4 5 5 5 6 5 7 9 9 11 12 12 14 16 15 13 12 7 7 8 2 -3 -0
6 1 6 2 1 -0 4 5 5 2 5 6 6 5 5 3 4 4 4 3 3 3 1 1 -2 -5 -5 -1 4 10 13 14 13 15 16 14 13 12 8 8 6 -3 -3 -1
5 6 5 7 2 3 5 5 7 5 7 5 5 6 5 4 6 5 3 2 1 1 -0 -2 -1 -2 -1 -1 2 8 12 15 15 14 15 14 14 12 7 7 6 2 2 1
10 9 9 8 9 7 8 8 7 7 6 7 5 5 5 6 6 5 4 2 3 4 4 2 1 0 -1 1 1 2 11 13 14 15 15 13 12 11 10 11 12 12 11 10
10 11 13 11 10 9 7 7 8 6 6 6 6 5 5 4 3 2 2 2 2 1 1 2 5 6 4 3 3 3 10 13 15 15 15 14 12 12 12 11 10 10 8 9
11 11 13 11 10 7 8 7 6 6 5 5 6 6 7 6 4 2 1 -1 0 -2 -1 -1 -4 -2 2 8 4 6 12 14 15 15 15 13 13 11 11 9 6 5 6 7
9 9 10 10 6 9 6 4 3 3 3 3 2 1 1 -0 1 2 2 2 4 2 1 -0 -1 1 4 9 12 13 14 14 14 14 13 13 13 12 9 9 7 5 8 10
9 10 11 9 8 5 2 1 -1 -0 3 3 2 2 2 3 4 3 4 4 4 3 2 4 7 11 13 14 14 14 14 13 13 13 11 7 5 6 7 8 6 5 10 9
6 11 11 11 9 5 3 -1 -2 -2 -1 -1 -1 -2 -1 0 4 7 11 12 11 10 10 9 11 12 15 15 14 14 13 11 8 6 4 5 6 7 7 6 7 10 10 9

GFSCGP_850_dewp_006.txt.gz
Dewpoint
-12 -8 -5 -3 -2 4 3 7 8 8 7 9 11 12 15 13 13 13 14 14 15 15 14 15 15 15 14 14 15 15 15 15 15 14 15 15 15 15 15 16 15 15 15 15
-7 -7 -7 -5 -3 -0 4 4 7 4 7 9 11 12 14 14 13 13 13 13 14 14 15 14 15 15 15 14 14 14 14 14 14 14 14 15 16 17 16 16 15 15 15 15
-9 -9 -7 -2 -1 -2 -0 -2 -0 5 9 10 12 13 13 13 13 13 13 13 13 13 14 13 13 13 14 14 14 13 13 14 14 14 15 16 17 15 13 11 12 13 11 13
-11 -12 -7 -3 0 -1 1 -2 -2 6 9 11 9 12 13 12 13 12 12 12 13 13 12 12 13 13 13 13 13 13 13 13 14 14 14 14 13 10 9 6 7 9 10 13
-8 -9 -6 -1 -2 -2 -2 -2 -0 5 8 9 12 10 9 12 13 12 11 11 12 12 12 12 13 13 13 13 13 13 13 13 13 14 13 13 12 11 12 10 10 9 12 12
-7 -11 -8 -7 -4 -3 -4 -6 -2 2 6 9 9 10 8 14 12 11 11 11 12 12 12 12 12 12 13 13 13 13 13 10 11 13 13 12 9 10 10 8 4 5 10 10
-9 -10 -9 -7 -5 -5 -6 -3 0 2 8 8 7 11 8 8 10 9 10 11 12 12 12 12 12 12 13 13 14 12 12 6 7 9 8 6 4 5 8 5 -2 4 8 8
-6 -8 -8 -8 -6 -4 -4 -3 1 1 4 7 8 12 9 5 5 8 9 10 11 12 12 12 12 12 13 13 13 11 8 4 4 5 2 0 4 -0 -1 -2 -5 2 7 6
-5 -6 -8 -8 -7 -7 -5 -4 -5 -2 -0 1 4 2 0 1 3 7 8 9 10 11 12 13 12 12 13 13 13 9 6 2 1 1 0 1 2 3 -2 -5 -9 -2 -0 -2
-7 -6 -8 -9 -8 -8 -6 -6 -2 -2 1 3 2 1 3 2 4 5 8 9 9 10 12 13 13 12 13 12 12 12 8 -0 -1 2 1 2 2 2 1 -3 -6 -7 -5 0
-8 -8 -8 -7 -7 -7 -4 -4 -3 -2 -1 1 1 2 0 0 3 4 7 8 8 9 11 12 12 11 12 12 12 13 11 8 1 1 3 3 5 9 8 1 -5 -4 -2 -0
-9 -8 -6 -7 -8 -8 -7 -5 -4 -2 -2 -0 -0 -0 -3 1 1 6 5 7 7 7 8 9 10 11 12 12 12 12 12 10 7 4 8 7 7 9 13 4 -2 -3 -4 -4
-7 -7 -6 -7 -8 -6 -6 -4 -4 -3 -2 2 1 0 -1 2 5 7 6 6 6 6 6 9 10 10 11 11 12 12 12 12 9 9 11 13 12 12 13 9 3 -2 -4 -4
-0 -7 -7 -5 -7 -7 -4 -3 -3 -4 -0 0 1 -2 -1 4 6 7 7 6 5 6 6 8 9 9 9 10 11 12 12 12 12 10 11 13 14 13 13 12 4 3 -1 -1
-8 -5 -7 -7 -8 -5 -5 -3 -1 -2 -3 -1 -2 -0 -1 3 5 5 4 7 6 6 6 6 7 6 8 9 10 11 12 12 12 12 10 10 12 14 14 13 6 3 2 1
-4 -5 -6 -6 -8 -6 -6 -5 -1 -1 -2 -2 -3 -0 -2 0 3 5 4 6 7 6 5 4 5 6 6 6 6 9 11 12 13 13 12 12 13 14 14 12 12 8 3 3
3 -5 -4 -4 -6 -6 -4 -7 -5 -3 -2 -2 0 -1 -1 3 4 4 4 5 5 4 5 5 4 4 3 3 4 6 8 11 12 13 13 14 15 15 15 12 12 12 5 -2
9 -1 -3 -4 -2 -0 -6 -2 -6 -4 4 3 1 -0 2 2 1 2 2 2 2 3 5 4 2 2 3 4 5 6 7 9 11 11 13 15 16 15 15 11 10 11 8 2
8 1 0 -0 -1 -1 5 6 5 4 5 5 6 5 4 1 2 3 3 3 3 3 3 1 3 4 -2 -3 1 4 6 10 12 12 13 14 15 16 15 11 8 11 11 8
6 7 6 4 1 5 5 7 7 7 6 6 6 6 6 4 4 6 4 4 4 4 5 4 -2 -3 -3 -3 -2 -2 1 8 9 12 14 14 15 16 15 13 9 12 12 12
10 10 10 8 7 7 8 8 8 5 5 7 6 5 5 7 6 6 5 5 4 3 2 2 3 2 3 1 2 2 2 2 8 12 15 16 16 16 15 12 12 13 12 12
9 12 13 11 10 9 7 8 6 7 6 7 6 6 5 6 7 5 2 0 0 0 -0 -1 -1 -2 -3 -3 2 5 4 9 6 12 15 16 16 16 14 14 13 12 11 10
11 11 12 10 10 8 7 7 7 6 5 5 3 4 5 6 6 4 3 3 3 2 2 2 0 -2 -3 -3 3 -3 10 9 13 15 15 15 15 14 13 13 12 10 9 8
10 9 10 10 8 8 4 4 5 4 4 4 4 4 4 5 6 7 7 5 3 3 3 4 4 4 5 5 10 12 14 14 14 14 15 14 14 12 11 8 8 9 8 7
9 9 9 9 8 5 2 2 2 1 0 1 1 2 3 4 6 7 7 9 9 10 7 5 4 4 7 10 13 13 14 14 12 11 13 12 13 13 12 10 9 7 7 6
7 10 9 9 6 7 4 3 2 2 2 1 0 0 1 1 2 2 4 6 9 9 8 8 6 7 6 6 9 12 12 11 10 8 8 9 11 10 9 8 9 7 7 4

GFSCGP_850_dewp_012.txt.gz
Dewpoint
-11 -8 -8 -6 -5 -3 -1 1 2 2 6 8 7 7 9 11 11 10 12 12 12 11 11 13 15 15 15 16 17 18 17 17 17 17 17 17 16 16 17 16 16 16 16 15
-10 -9 -11 -9 -7 -4 -2 0 2 2 7 7 6 7 7 9 11 10 11 12 13 11 11 13 14 15 15 16 17 18 18 17 17 17 17 16 16 15 16 16 16 16 16 16
-8 -13 -12 -10 -8 -3 -0 0 1 4 7 7 6 8 7 6 9 10 11 10 12 12 12 12 13 14 15 15 17 17 18 18 18 17 17 17 17 16 17 16 16 16 16 16
-10 -14 -12 -10 -7 -5 -0 -2 -0 3 6 8 7 8 5 5 8 10 11 11 10 12 12 12 13 14 14 15 16 17 17 16 17 17 17 17 16 15 14 14 14 15 16 16
-7 -12 -11 -10 -9 -8 -2 -3 -0 1 5 5 7 9 5 5 7 8 9 10 10 9 11 12 12 13 14 15 16 16 15 14 16 18 16 17 17 15 15 15 15 14 15 15
-7 -11 -13 -12 -13 -9 -6 -3 -1 1 2 6 5 7 4 3 6 4 6 8 10 8 9 10 11 12 13 14 15 16 15 13 14 15 15 17 17 16 15 15 14 13 14 15
-5 -8 -12 -15 -11 -11 -5 -0 5 6 5 5 4 5 4 -0 -0 1 0 6 9 8 8 9 10 12 13 14 14 15 16 12 13 13 13 14 17 17 17 16 14 12 13 13
-2 -4 -8 -12 -12 -8 -4 -1 3 7 5 4 3 6 3 0 -1 -2 1 2 7 8 7 8 10 11 13 13 14 15 15 12 12 12 13 13 13 17 16 16 13 12 12 12
-3 -3 -9 -11 -12 -10 -5 -0 -2 1 0 2 0 3 0 -1 0 0 0 4 6 8 7 8 9 10 12 13 14 14 14 10 11 12 12 12 12 13 16 16 13 13 12 12
-3 -1 -6 -9 -11 -11 -7 -5 0 0 6 5 2 1 2 1 -2 -3 2 3 5 7 8 7 9 10 11 12 13 14 15 14 12 13 9 11 11 9 10 12 6 4 9 -1
-3 -3 -6 -7 -9 -9 -8 -4 -2 -2 -0 3 4 2 -2 -1 -2 -3 -3 2 2 6 8 8 8 9 11 11 12 13 15 16 15 13 7 9 11 9 6 4 -1 -0 -2 -5
-2 -2 -1 -8 -12 -12 -9 -5 -2 1 4 1 1 -0 -5 -3 -4 -5 -6 -5 -2 4 7 9 9 10 11 12 12 12 13 14 14 6 3 5 10 7 8 2 1 2 0 -4
-3 -0 1 -1 -8 -11 -10 -9 -6 -4 -2 4 3 1 -5 -5 -2 -2 0 -1 1 6 8 10 10 11 12 11 12 13 14 13 13 14 14 12 10 13 8 2 5 6 5 1
-5 -3 -0 -0 -1 -6 -6 -9 -9 -6 -1 0 -0 -0 -3 -4 -3 -5 -6 -2 1 8 9 10 10 12 13 12 13 13 14 14 14 14 16 16 12 12 14 9 9 5 7 5
-5 4 2 -2 -4 -5 -6 -7 -8 -7 -6 -1 -2 -2 -2 -2 -3 -5 -6 -6 1 8 9 11 11 12 14 14 14 15 15 15 15 15 16 17 18 18 17 17 10 8 11 10
-1 6 4 3 -1 -1 -2 -4 -6 -9 -9 -7 -6 -4 -6 -5 -5 -5 -6 -6 -1 8 9 11 12 13 15 15 15 16 16 16 16 16 17 17 18 18 17 17 15 13 12 13
2 3 6 6 -0 0 2 0 -1 -4 -8 -9 -6 -6 -7 -5 -5 -5 -6 -2 1 6 8 10 11 13 14 15 16 16 16 16 16 16 17 18 18 18 17 17 16 16 15 15
6 7 6 6 5 7 -0 -4 -2 -2 -5 -10 -9 -8 -6 -4 -6 -5 -4 -4 -3 6 8 10 10 12 14 14 15 15 14 10 12 13 15 17 18 18 17 15 15 16 16 15
3 6 7 7 6 3 2 4 2 -0 -2 -7 -8 -7 -7 -8 -5 1 6 5 5 7 9 10 10 13 14 13 13 12 12 9 8 8 10 11 12 16 15 14 15 15 15 15
3 6 7 7 7 7 8 7 6 7 6 -4 -6 -5 -5 -6 1 -1 7 6 5 7 10 11 11 12 10 11 11 10 10 5 8 6 7 9 13 16 15 14 15 16 16 15
8 7 6 7 8 6 8 6 7 10 4 8 -6 -6 -6 -3 3 8 9 9 9 9 10 11 12 12 13 12 11 11 13 14 12 5 5 7 14 16 15 16 16 16 15 14
9 8 6 6 10 10 7 7 10 11 9 8 7 3 4 8 9 10 11 12 12 13 13 13 13 12 11 12 13 13 13 7 4 4 7 9 11 15 17 16 16 15 15 14
7 4 6 7 7 8 7 8 8 9 9 9 8 8 9 9 10 11 11 11 10 10 9 10 11 12 12 13 10 5 -1 -1 -1 2 8 10 14 15 15 16 16 15 14 14
7 6 8 10 10 8 7 7 8 8 10 9 9 9 9 10 10 11 11 12 12 11 11 11 11 6 1 1 1 2 2 3 5 7 10 14 15 15 15 15 15 14 14 13
10 9 9 10 9 7 8 8 7 7 7 7 7 9 11 12 12 13 13 13 13 13 12 11 9 -1 -1 -1 -2 1 6 10 14 14 16 16 15 15 15 14 14 14 13 13
9 11 9 9 8 9 9 6 5 5 5 5 6 6 6 7 7 9 9 10 12 14 14 14 7 6 5 7 9 10 13 15 15 15 15 15 14 15 14 13 13 13 12 11

GFSCGP_850_dewp_015.txt.gz
Dewpoint
-9 -9 -8 -7 -5 -4 -2 -0 -0 1 0 4 5 5 6 7 7 6 7 7 8 9 10 11 12 13 13 14 15 16 17 16 17 17 17 17 17 15 15 15 16 17 15 17
-9 -9 -11 -9 -6 -4 -3 -1 -0 -0 1 3 4 5 5 8 8 8 8 8 8 8 8 10 12 12 13 14 15 16 17 17 17 17 17 16 15 14 15 15 15 17 17 18
-10 -12 -13 -10 -6 -3 -3 -2 -1 0 4 4 4 6 5 4 7 8 7 8 8 8 7 9 11 12 13 14 15 16 17 17 17 17 17 17 17 15 16 15 16 16 16 16
-10 -13 -14 -11 -8 -6 -2 -4 -3 -2 5 8 2 7 6 4 5 7 8 8 8 8 7 8 11 12 13 14 15 16 17 17 17 17 17 17 16 14 13 13 13 15 16 15
-8 -11 -12 -11 -10 -8 -4 -5 -2 -2 2 7 3 4 3 3 4 4 6 8 8 8 8 8 9 11 12 13 15 16 17 17 17 18 16 17 16 13 14 13 15 15 15 15
-9 -11 -12 -13 -13 -9 -8 -5 -2 -2 -1 5 5 5 6 5 3 3 2 6 8 8 7 9 9 10 12 12 14 15 17 17 17 17 16 16 16 14 14 14 15 14 14 15
-6 -8 -11 -14 -12 -11 -8 -5 1 3 3 3 2 4 8 2 1 1 0 2 5 8 8 7 10 10 11 12 14 15 16 17 17 17 18 16 17 17 16 16 15 13 13 14
-3 -3 -8 -11 -12 -11 -9 -6 -1 5 4 2 -0 4 2 1 -1 -2 -2 -2 1 6 8 7 8 10 11 12 13 15 16 17 15 17 17 17 16 17 16 16 15 14 13 13
-3 -3 -8 -10 -12 -14 -11 -6 -6 -1 -0 2 1 0 -1 -0 -0 -1 -2 -3 -2 5 7 7 7 8 10 11 13 14 15 16 15 17 16 16 17 16 16 15 14 15 12 12
-5 -2 -6 -10 -11 -12 -13 -12 -5 -1 6 6 1 1 2 1 1 -1 -1 -3 -2 2 6 7 7 8 9 11 12 14 15 16 16 16 16 16 16 16 13 15 15 15 13 11
-7 -4 -3 -6 -7 -8 -11 -10 -7 -4 -1 3 4 2 -2 1 1 -1 -1 -4 -3 0 5 7 6 7 9 10 11 13 14 15 16 16 16 16 16 17 13 11 14 14 13 13
-7 -4 -0 -4 -7 -10 -10 -10 -9 -1 4 -0 1 0 -4 -4 -3 -3 -3 -4 -3 -3 3 6 6 7 8 9 10 11 13 14 15 15 15 14 14 15 16 11 16 15 5 12
-6 -2 1 1 -6 -8 -7 -9 -11 -9 -3 5 3 1 -4 -4 -3 -4 -3 -4 -5 -1 0 5 7 7 8 9 10 10 12 11 13 15 15 15 13 12 10 14 14 16 9 7
-4 -2 0 1 -0 -6 -6 -9 -10 -10 -5 -1 -0 0 -1 -3 -3 -3 -4 -4 -3 -4 5 4 7 7 8 9 10 10 10 10 12 13 14 15 14 11 14 15 16 16 13 7
-5 0 -1 -2 -3 -4 -8 -10 -11 -9 -6 -2 -3 -2 -1 -2 -2 -3 -5 -5 -5 -5 2 7 8 9 10 10 11 11 11 11 11 12 13 14 15 16 16 16 17 17 16 13
-6 -0 -0 -0 -4 -4 -4 -6 -8 -9 -10 -9 -7 -5 -6 -5 -4 -4 -5 -5 -5 -5 -4 7 9 10 12 12 13 13 13 13 13 13 14 14 16 16 16 17 17 17 17 17
-2 -0 1 3 0 0 0 -3 -4 -5 -7 -8 -6 -7 -7 -5 -3 -3 -4 -4 -4 -4 -5 1 8 11 12 13 14 14 15 14 14 14 16 15 17 17 17 18 18 17 17 17
-2 2 1 3 3 6 1 -3 -4 -4 -4 -5 -5 -7 -8 -2 -6 -6 -6 -5 -5 -4 -4 -3 7 10 12 13 14 14 16 16 16 16 16 17 17 18 18 19 18 18 18 17
-2 0 3 4 4 4 3 3 4 6 5 -3 -4 -4 -6 -10 -11 -6 -8 -7 -6 -5 -4 -2 8 10 12 14 14 15 16 17 17 17 17 17 18 18 19 19 18 18 18 17
0 3 5 5 6 7 4 6 5 4 5 -2 0 2 -4 -8 -8 -5 -8 -8 -6 1 1 1 8 10 13 14 14 16 16 17 17 17 18 18 18 18 19 18 18 18 17 16
0 3 4 5 6 3 7 5 4 7 6 9 8 8 5 1 -7 -8 -0 -5 -2 3 4 9 10 11 14 15 14 15 16 16 16 16 17 17 18 18 18 18 18 17 16 16
1 4 3 4 5 5 6 6 7 10 9 8 8 7 6 5 -7 4 9 9 8 7 8 11 12 13 15 14 15 15 14 14 14 15 17 18 19 18 18 18 17 17 16 16
3 2 2 5 7 10 8 8 9 9 9 9 8 8 6 5 8 9 11 11 12 12 12 12 13 15 14 14 14 14 15 15 16 17 17 18 18 18 18 18 17 16 16 16
10 3 4 9 10 9 8 8 9 10 10 11 10 9 9 10 10 11 11 11 12 13 13 14 14 15 15 16 16 18 15 16 18 18 17 16 17 17 16 17 16 15 15 15
11 11 9 11 10 9 8 8 8 8 8 10 11 11 13 12 12 12 12 12 11 11 12 13 14 15 16 17 17 17 17 17 17 14 13 16 17 16 15 15 15 14 14 14
10 12 14 13 9 9 8 7 6 6 7 7 8 8 9 10 11 12 13 13 13 13 13 13 14 15 16 17 16 17 17 17 16 16 16 16 15 15 15 14 14 14 13 14

GFSCGP_850_dewp_021.txt.gz
Dewpoint
-6 -3 -2 -5 -8 -6 -4 -4 -2 -3 1 9 9 8 7 5 5 6 9 9 10 10 10 11 11 11 12 13 13 14 14 14 16 16 15 14 14 15 14 14 14 15 15 16
-5 -3 -4 -6 -7 -7 -5 -4 -3 -3 2 8 11 9 8 5 4 6 7 8 9 10 10 10 11 11 12 12 13 13 14 14 16 16 16 15 14 16 15 14 15 16 15 15
-4 -4 -4 -6 -6 -5 -5 -4 -3 -1 2 6 11 11 11 5 5 6 6 7 9 9 9 10 10 11 11 12 13 13 14 14 15 16 16 17 16 14 15 15 15 14 14 15
-5 -6 -6 -6 -7 -7 -3 -5 -4 -3 0 7 8 13 11 7 7 7 6 6 7 9 9 9 11 11 11 12 12 13 13 14 15 16 17 16 14 14 15 16 14 14 14 15
-5 -5 -5 -7 -9 -11 -6 -5 -4 -3 -1 6 5 7 11 9 9 8 6 6 6 7 8 9 10 11 11 12 12 13 13 14 15 15 15 15 13 14 16 16 15 15 15 16
-7 -9 -8 -7 -9 -12 -12 -7 -4 -3 -2 4 5 6 9 9 9 7 6 6 6 6 6 7 9 10 11 12 13 13 13 14 15 15 15 15 16 15 15 13 13 13 15 14
-3 -5 -9 -9 -8 -12 -12 -9 -2 1 1 3 3 6 9 6 5 7 7 6 7 7 6 6 9 11 11 12 13 13 13 14 14 15 15 15 16 16 13 14 15 15 14 14
-3 -1 -4 -8 -8 -10 -11 -11 -6 2 2 2 1 6 6 4 3 6 6 5 6 6 7 7 6 10 11 11 12 13 14 14 14 15 15 14 16 16 14 16 17 14 14 13
-4 -3 -5 -7 -8 -10 -8 -10 -12 -7 -3 1 0 -1 -2 4 3 4 4 4 5 4 8 8 7 8 10 11 11 13 14 14 14 15 15 15 14 15 13 15 16 15 14 12
-5 -0 -5 -6 -8 -9 -10 -10 -9 -10 -5 -0 -1 1 3 2 5 6 5 5 4 4 6 9 8 8 9 10 10 12 13 14 14 15 15 15 12 14 13 13 15 16 16 13
-8 -5 -4 -5 -5 -7 -7 -9 -10 -10 -8 -3 1 -0 -2 3 6 6 4 3 2 4 5 8 8 8 8 10 11 12 13 14 15 15 15 15 14 12 14 13 13 15 16 14
-7 -6 -4 -4 -6 -8 -9 -7 -8 -6 -3 -2 -5 -4 -4 -5 4 4 3 2 1 2 6 8 8 9 10 10 11 11 12 13 14 15 15 14 15 12 11 12 11 12 15 15
-6 -5 -3 -3 -6 -7 -7 -8 -8 -10 -6 -3 1 -3 -9 -8 2 -0 3 3 1 0 6 8 9 10 10 10 11 12 12 12 13 14 15 15 14 13 8 8 6 8 11 13
2 -5 -5 -3 -3 -3 -1 -6 -7 -8 -6 -7 -7 -8 -8 0 4 -1 -2 0 -0 2 -0 8 9 9 10 10 11 12 12 12 12 13 14 14 14 12 6 4 4 7 7 13
-4 -1 -4 -5 -5 -4 -5 -3 -6 -6 -9 -4 -7 -7 -7 -4 6 5 1 -0 0 -1 -1 6 9 9 9 10 10 11 12 12 12 13 13 13 12 12 10 8 6 4 10 10
-1 3 1 -1 -5 -6 -6 -4 -3 -7 -7 -6 -5 -5 -5 -3 2 4 3 2 -2 -2 4 4 8 8 8 8 9 10 11 13 11 12 12 12 14 14 13 11 9 11 10 12
1 2 3 1 -0 -0 -2 -5 -3 -2 -5 -5 -4 -7 -5 -4 -1 3 4 1 -2 -2 1 4 5 7 7 7 7 9 10 12 12 11 12 12 14 14 14 13 14 15 15 15
0 1 3 2 3 6 1 -2 -3 -2 -0 -4 -5 -4 -2 -1 -4 -5 -8 -7 -2 -6 2 2 0 2 8 7 7 7 10 11 12 11 11 11 11 12 14 15 15 16 16 16
-2 -1 2 5 3 1 -0 -1 -1 0 -1 -1 4 3 3 4 -2 -4 -5 -8 -8 -10 -3 -3 3 1 4 6 9 8 10 11 11 11 10 11 11 11 13 14 15 16 16 17
-3 -3 3 3 4 3 0 -1 -2 4 7 9 9 9 8 6 7 7 5 4 2 -3 -9 -8 -2 0 2 5 7 11 11 11 11 11 11 10 12 12 13 14 15 16 17 17
3 6 5 3 2 1 1 -4 3 8 9 9 9 9 9 9 9 6 4 1 1 1 -3 -7 -3 -4 -2 1 7 10 13 12 11 11 12 11 12 12 13 14 15 17 17 18
10 10 8 6 5 6 6 5 6 9 10 9 8 7 7 6 5 3 3 3 -2 1 5 -1 -4 -9 -10 -3 4 10 13 13 13 13 13 13 14 15 15 17 17 17 18 18
9 9 12 8 11 10 10 10 9 12 13 14 14 12 10 13 14 13 14 13 12 10 8 4 -3 -2 -2 -1 8 10 13 15 16 15 15 17 18 19 19 20 18 17 19 19
7 10 11 11 9 8 8 6 13 12 13 13 14 14 13 13 14 14 15 15 15 14 14 14 14 15 16 14 13 13 15 15 17 17 18 19 19 19 20 20 18 19 19 17
10 10 11 11 12 12 11 12 12 11 11 12 12 12 13 13 13 14 14 15 16 16 16 16 15 16 16 16 17 17 17 17 18 18 19 19 19 19 19 19 19 18 16 16
9 11 12 13 11 11 10 9 10 10 10 9 10 10 11 12 12 13 14 15 15 15 15 16 18 17 18 17 18 18 18 18 18 18 17 17 18 18 18 18 17 16 16 15

GFSCGP_850_dewp_027.txt.gz
Dewpoint
-2 -0 1 -1 -3 -4 -3 -3 -2 -3 -1 6 7 8 13 12 12 13 15 15 15 15 14 15 14 13 13 13 14 12 13 14 14 14 14 15 15 16 15 15 14 14 15 15
-4 0 -1 -3 -3 -4 -4 -3 -3 -4 -1 6 7 8 8 12 12 12 12 13 14 15 15 15 14 14 14 13 13 13 13 14 14 14 14 13 13 14 14 15 14 14 15 15
-1 -4 -5 -3 -3 -3 -4 -4 -4 -4 -4 5 8 9 8 12 12 13 13 12 12 13 13 12 12 13 13 14 13 13 12 14 14 15 15 14 14 13 14 14 14 15 15 14
-6 -8 -6 -4 -2 -3 -2 -6 -6 -5 -3 -1 6 11 9 11 13 12 12 13 12 12 12 12 12 12 12 12 13 13 13 13 14 15 14 14 15 15 14 12 13 14 13 14
-5 -6 -6 -4 -4 -4 -2 -5 -5 -4 -4 -3 1 8 7 9 12 10 10 11 12 12 12 11 11 10 11 11 11 13 13 13 14 14 14 15 15 14 14 12 14 14 14 13
-5 -6 -8 -6 -5 -6 -5 -5 -7 -4 -3 0 -2 1 0 10 8 8 6 9 11 11 11 12 11 11 11 11 11 11 12 12 13 13 14 14 14 14 14 15 13 14 14 15
-5 -6 -6 -6 -4 -4 -5 -6 -1 -3 -1 -1 -4 2 -1 3 7 6 6 6 9 10 10 11 11 11 12 12 11 11 12 12 13 13 13 13 14 14 14 14 14 12 15 15
-0 1 -5 -7 -5 -4 -4 -4 -2 -2 -1 -2 -2 2 0 -0 3 6 5 5 6 8 9 10 10 10 10 11 11 11 11 12 12 13 13 13 13 14 14 14 14 12 15 14
-1 -0 -5 -4 -7 -6 -5 -4 -7 -7 -3 -3 -1 -2 -2 -0 3 4 6 5 6 7 8 9 9 9 9 11 11 11 11 11 11 12 12 13 13 14 14 13 13 12 15 13
-5 -3 -6 -5 -5 -7 -6 -9 -7 -8 -2 -2 -5 -3 -3 1 0 3 6 5 6 6 7 7 8 9 9 9 9 10 10 10 11 11 12 12 12 13 14 14 11 13 14 14
-6 -6 -5 -6 -5 -2 -3 -6 -8 -8 -7 -5 -4 -6 -8 -3 -0 2 4 6 6 6 6 6 6 8 8 9 10 10 10 11 11 11 11 12 13 13 14 14 11 12 12 13
-0 -6 -4 -4 -6 -8 -5 -4 -6 -5 -5 -7 -7 -6 -8 -6 -4 -1 -0 1 3 6 6 6 6 7 8 9 10 10 10 10 10 10 11 11 12 13 14 14 13 8 12 12
4 2 -3 -6 -8 -8 -5 -5 -6 -6 -7 -4 -6 -6 -8 -7 -4 -1 -1 2 3 4 6 7 6 6 7 8 9 10 10 9 10 11 11 11 12 12 13 14 14 7 11 12
1 1 0 -1 -4 -6 -6 -6 -5 -6 -4 -4 -5 -7 -8 -8 -7 -6 -0 -4 2 5 6 7 7 6 6 7 7 9 9 9 10 10 11 11 11 12 12 13 14 11 7 10
1 4 1 0 0 -0 -2 -6 -7 -5 -5 -4 -5 -7 -9 -8 -7 -7 -10 -10 -7 -2 5 6 7 7 7 7 8 8 10 10 10 10 11 11 11 11 12 13 14 13 9 8
1 4 2 2 -1 -1 -1 -4 -5 -7 -6 -6 -6 -7 -9 -10 -10 -10 -12 -13 -8 -9 0 4 6 6 6 6 7 8 10 11 10 10 9 11 10 11 12 13 13 14 12 9
2 3 3 4 1 1 1 -3 -5 -5 -7 -6 -5 -7 -9 -9 -9 -9 -11 -11 -9 -11 -9 4 4 2 2 3 4 7 7 9 11 10 10 11 10 10 11 13 13 13 13 12
2 3 3 4 3 4 -2 -6 -6 -6 -6 -6 -8 -7 -6 -7 -10 -11 -12 -10 -8 -10 -5 3 4 4 3 0 4 4 8 9 10 10 12 12 10 10 11 12 13 13 13 11
-0 1 4 4 5 3 -1 -2 -5 -4 -4 -4 -5 -6 -6 -7 -5 -3 -7 -8 -8 -10 -6 -2 1 1 0 -1 0 7 10 9 11 10 10 11 9 10 11 12 12 13 14 13
-1 -0 3 4 5 5 1 7 8 5 -3 -3 -2 -3 -3 -2 -2 -4 -2 -5 -3 0 -2 -1 -1 -1 1 3 6 9 10 10 10 9 8 9 9 10 10 10 11 12 13 13
4 3 5 5 6 5 8 11 10 5 -1 8 3 -1 3 -1 -4 -4 2 2 0 -2 -3 -3 -3 -2 -1 3 7 8 10 10 7 7 8 11 11 11 11 11 13 12 12 14
7 8 7 5 7 7 10 10 13 12 13 9 7 6 5 4 6 5 4 4 2 0 -1 0 2 -2 -4 1 8 8 10 5 6 9 10 10 11 11 13 13 14 14 15 16
6 7 8 6 7 9 9 10 10 11 13 14 7 9 10 12 10 9 8 6 3 1 0 1 2 5 4 3 10 10 8 6 7 9 10 9 10 12 14 14 13 16 17 17
5 7 8 9 10 10 11 10 11 11 12 13 14 13 14 14 14 13 12 10 10 10 8 6 5 7 10 9 7 3 7 10 11 10 8 9 9 12 15 16 16 16 18 18
5 7 7 9 10 9 10 9 10 10 12 13 14 15 15 16 16 16 16 16 16 16 15 14 13 13 13 13 13 13 12 8 10 11 12 12 13 15 17 16 17 17 18 18
6 7 8 9 10 10 10 9 9 9 10 11 12 13 13 14 15 15 15 15 15 14 14 14 13 13 13 10 9 7 11 17 15 15 14 14 15 15 16 17 18 18 18 18

GFSCGP_850_dewp_033.txt.gz
Dewpoint
-1 -1 -0 -2 -3 -5 -6 -5 -2 -2 -3 4 4 5 7 12 13 13 14 14 14 14 14 14 15 15 13 12 12 13 12 10 10 8 7 5 8 9 13 13 13 14 14 14
0 -1 -4 -4 -2 -3 -5 -5 -3 -2 -4 -2 0 5 6 11 13 13 14 14 14 14 14 14 15 15 14 12 13 13 12 12 9 8 9 7 8 11 13 13 14 14 14 14
-4 -5 -5 -2 -1 -1 -2 -5 -5 -3 -4 -2 1 1 5 10 11 12 14 13 14 14 14 14 15 15 14 12 12 12 12 12 11 11 12 10 10 11 13 14 14 14 15 14
-6 -6 -3 -3 -2 -2 -3 -5 -6 -4 -2 0 1 3 6 6 12 12 12 14 14 14 14 14 14 15 14 12 12 12 12 12 13 12 13 13 10 11 12 13 13 14 15 15
-4 -3 -2 -1 -3 -2 -3 -4 -5 -5 -3 -1 -1 2 2 8 11 12 12 13 13 13 14 14 15 11 13 14 12 12 12 12 12 12 12 13 14 13 13 13 13 13 14 15
-7 -6 -4 -2 -3 -2 -3 -3 -3 -2 -2 1 -0 0 1 3 6 8 11 11 13 13 13 14 15 14 14 12 12 12 13 13 12 13 12 12 13 14 14 13 13 13 14 14
-4 -5 -5 -5 -2 -3 -2 -3 -0 0 0 0 -1 1 1 -0 2 1 8 11 12 12 13 13 14 15 13 14 10 11 12 13 13 13 13 13 12 13 14 14 14 14 14 13
-2 -1 -5 -6 -4 -3 -2 -3 -4 -1 -3 -4 -0 1 -0 -2 -3 1 2 6 10 12 12 13 13 13 12 11 12 11 11 11 12 12 13 13 13 13 13 14 14 14 14 12
-3 -3 -5 -6 -7 -5 -3 -1 -6 -5 -3 -3 -4 -3 -3 -2 -2 0 3 4 8 10 11 12 13 12 11 11 10 9 9 9 10 10 11 12 13 13 13 13 13 14 14 14
-2 -0 -4 -6 -7 -6 -4 -5 -2 -3 -2 -1 -3 -1 -3 1 -1 -0 2 2 5 6 9 10 12 12 11 10 10 10 9 6 7 9 9 10 10 12 12 13 13 13 14 14
-0 -2 -2 -4 -3 -4 -5 -3 -4 -5 -4 -5 -5 -6 -3 -0 4 2 -0 -0 2 4 6 7 9 9 10 12 12 11 10 9 8 7 8 9 10 11 12 12 12 12 13 14
2 -2 -0 -2 -5 -6 -5 -4 -3 -2 1 -3 -5 -7 -6 -4 -3 1 -1 -1 1 4 3 5 5 9 11 12 12 11 10 10 9 8 8 8 8 9 10 11 11 12 12 13
1 2 2 0 -3 -5 -3 -4 -4 -4 -4 1 -2 -5 -7 -5 -4 -4 -2 -1 -4 -5 -3 2 6 7 7 8 9 11 9 8 9 10 9 9 9 9 10 10 11 11 12 12
1 1 2 1 1 0 1 -2 -3 -3 -1 -1 -1 -4 -5 -5 -3 -3 -3 -5 -4 -4 -7 -4 -1 2 4 6 7 8 9 9 9 10 9 9 9 9 9 9 10 11 11 12
0 2 1 0 -1 -1 0 -1 -1 -1 -1 0 -2 -2 -3 -3 -3 -3 -4 -2 -5 -3 -9 -4 -2 -4 -1 4 6 7 8 9 9 9 9 8 8 9 9 9 10 10 11 11
-2 -1 -0 -1 -3 -3 0 -1 -1 -1 -2 -2 -2 -1 -4 -4 -3 -2 -4 -4 -6 -2 -11 -4 -7 -3 -4 -0 3 6 7 7 8 8 7 7 9 9 9 9 9 10 10 11
-1 -2 -1 -2 -1 -1 0 -1 -2 -2 -3 -3 -1 -3 -5 -4 -3 -2 -3 -3 -3 -5 -10 -11 -12 -9 -11 -10 -6 2 5 7 8 7 8 8 8 9 9 10 9 9 10 10
-1 3 -0 -4 -2 1 -3 -2 -2 -1 -3 -4 -4 -4 -4 -3 -3 -3 -5 -6 -6 -10 -10 -10 -11 -11 -12 -12 -8 -4 5 6 6 8 8 9 9 9 10 10 9 9 10 9
-2 -1 -1 -3 -2 -3 -4 -4 3 7 2 6 2 -3 -5 -6 -5 -2 -2 -6 -8 -9 -9 -9 -10 -11 -11 -11 -9 -1 5 7 8 8 8 8 7 8 10 11 9 9 9 10
-2 -2 -1 -2 -3 -2 -1 -2 3 9 6 9 10 9 4 -4 -1 -4 -6 -7 -9 -9 -9 -9 -10 -11 -9 -9 -2 2 4 6 7 6 6 7 9 10 10 9 11 11 11 10
1 0 0 -1 -1 -4 -4 1 9 9 5 11 11 11 12 11 3 -2 -2 -1 -6 -8 -8 -9 -10 -10 -7 0 2 3 6 6 5 8 9 10 12 12 12 14 15 15 15 16
-1 2 2 -0 -0 -2 -4 -3 1 8 10 9 10 11 12 12 12 12 6 1 -2 -4 -3 -4 -4 -3 -1 -1 3 5 7 7 8 7 7 8 9 11 14 14 15 15 16 17
1 -1 2 0 -4 -3 -2 2 0 7 8 8 11 11 12 13 13 13 8 12 12 8 5 5 3 -0 -1 2 7 7 7 9 9 10 10 11 12 12 14 15 15 16 12 16
-1 1 3 2 -1 0 -2 -1 1 9 8 11 12 12 13 13 14 12 14 15 16 12 11 12 12 8 6 5 5 7 8 8 9 10 11 12 13 13 15 17 15 16 17 17
-0 1 1 2 1 2 1 1 3 5 8 9 12 13 13 14 15 15 17 17 16 15 13 12 11 11 10 10 10 10 9 8 8 9 10 11 11 12 13 15 16 11 10 17
0 1 3 2 -0 1 1 2 4 9 8 11 11 13 13 15 15 16 16 15 14 13 11 10 9 8 7 7 6 6 5 5 5 5 5 5 7 9 13 15 13 16 16 17